Weather History for Kalispell, MT

Change the Weather History Date:

Tuesday, February 26, 2013

  Actual Average Record
Temperature  
Mean Temperature 34 °F 29 °F  
Max Temperature 38 °F 39 °F 55 °F (1926)
Min Temperature 30 °F 20 °F -10 °F (1922)
Degree Days  
Heating Degree Days 31 36  
Month to date heating degree days 851 989  
Since 1 July heating degree days 5224 5780  
Cooling Degree Days 0 0  
Month to date cooling degree days 0 0  
Year to date cooling degree days 0 0  
Moisture  
Dew Point 23 °F    
Average Humidity 62    
Maximum Humidity 75    
Minimum Humidity 48    
Precipitation  
Precipitation T in 0.04 in 0.37 in (1919)
Month to date precipitation 0.18 0.90  
Year to date precipitation 1.05 2.23  
Snow  
Snow T in - - ()
Month to date snowfall 1.3  
Year to date snowfall 7.3  
Since 1 July snowfall 16.1  
Snow Depth 0.00 in    
Sea Level Pressure  
Sea Level Pressure 30.20 in    
Wind  
Wind Speed 7 mph (SSW)    
Max Wind Speed 21 mph    
Max Gust Speed 23 mph    
Visibility 10 miles    
Events      
T = Trace of Precipitation, MM = Missing Value Source: NWS Daily Summary

Daily Weather History Graph

Daily Weather History Graph

Search for Another Location

Airport:

Trip Planner

Search our weather history database for the weather conditions in past years. The results will help you decide how hot, cold, wet, or windy it might be!

Date:

Astronomy

Feb. 26, 2013 Rise Set
Actual Time 7:23 AM MST 6:17 PM MST
Civil Twilight 6:52 AM MST 6:48 PM MST
Nautical Twilight 6:15 AM MST 7:24 PM MST
Astronomical Twilight 5:39 AM MST 8:00 PM MST
Moon 7:49 PM MST (2/26) 7:20 AM MST (2/26)
Length of Visible Light 11h 56m
Length of Day
10h 53m
Full, 99% of the Moon is Illuminated
Feb 26
Full
Mar 4
Last Quarter
Mar 11
New
Mar 19
First Quarter
Mar 27
Full

Hourly Weather History & Observations

Time (MST) Temp. Windchill Dew Point Humidity Pressure Visibility Wind Dir Wind Speed Gust Speed Precip Events Conditions
12:55 AM 32.0 °F - 24.1 °F 73% 30.03 in 10.0 mi Calm Calm - N/A   Overcast
1:55 AM 32.0 °F 26.4 °F 25.0 °F 75% 30.04 in 10.0 mi South 5.8 mph - N/A   Overcast
2:55 AM 32.0 °F 26.4 °F 25.0 °F 75% 30.05 in 10.0 mi SSW 5.8 mph - N/A   Overcast
3:55 AM 32.0 °F 24.2 °F 25.0 °F 75% 30.06 in 10.0 mi SW 9.2 mph - N/A   Overcast
4:55 AM 32.0 °F 25.6 °F 24.1 °F 73% 30.09 in 10.0 mi SSW 6.9 mph - N/A   Overcast
5:55 AM 32.0 °F 28.7 °F 24.1 °F 73% 30.13 in 10.0 mi South 3.5 mph - N/A   Overcast
6:55 AM 32.0 °F 27.5 °F 24.1 °F 73% 30.15 in 10.0 mi SSW 4.6 mph - N/A   Overcast
7:55 AM 32.0 °F 28.7 °F 25.0 °F 75% 30.17 in 10.0 mi SSE 3.5 mph - 0.00 in   Overcast
8:55 AM 34.0 °F 26.0 °F 23.0 °F 64% 30.20 in 10.0 mi SSW 10.4 mph - N/A   Overcast
9:55 AM 34.0 °F 28.0 °F 23.0 °F 64% 30.22 in 10.0 mi South 6.9 mph - N/A   Overcast
10:55 AM 35.1 °F 28.6 °F 21.9 °F 59% 30.22 in 10.0 mi South 8.1 mph - N/A   Overcast
11:55 AM 34.0 °F 26.0 °F 25.0 °F 70% 30.24 in 10.0 mi SE 10.4 mph - N/A   Overcast
12:55 PM 34.0 °F 26.0 °F 26.1 °F 73% 30.24 in 10.0 mi SE 10.4 mph - 0.00 in   Overcast
1:55 PM 36.0 °F 28.0 °F 27.0 °F 70% 30.24 in 10.0 mi SE 11.5 mph - 0.00 in   Overcast
2:55 PM 37.9 °F 32.7 °F 21.0 °F 51% 30.24 in 10.0 mi WSW 6.9 mph - N/A   Overcast
3:55 PM 37.9 °F 32.1 °F 19.9 °F 48% 30.25 in 10.0 mi WSW 8.1 mph - N/A   Overcast
4:55 PM 36.0 °F 28.5 °F 21.0 °F 55% 30.26 in 10.0 mi WSW 10.4 mph - N/A   Overcast
5:55 PM 36.0 °F 29.6 °F 21.9 °F 57% 30.27 in 10.0 mi WSW 8.1 mph - N/A   Overcast
6:55 PM 33.1 °F 24.4 °F 21.9 °F 64% 30.29 in 10.0 mi WSW 11.5 mph - N/A   Mostly Cloudy
7:55 PM 33.1 °F 26.1 °F 21.0 °F 61% 30.29 in 10.0 mi SW 8.1 mph - N/A   Mostly Cloudy
8:55 PM 33.1 °F 24.4 °F 21.0 °F 61% 30.29 in 10.0 mi SW 11.5 mph - N/A   Overcast
9:55 PM 33.1 °F 24.9 °F 21.0 °F 61% 30.30 in 10.0 mi SW 10.4 mph - N/A   Overcast
10:55 PM 33.1 °F 26.9 °F 19.9 °F 59% 30.30 in 10.0 mi SW 6.9 mph - N/A   Overcast
11:55 PM 30.0 °F - 19.9 °F 66% 30.30 in 10.0 mi Calm Calm - N/A   Overcast